Starlink 5472

operational
NORAD ID: 54767 Int'l Des: 2022-175 Owner: SPXS Country: US Constellation: starlink
LEOCIRCULAR

关于 Starlink 5472

正在加载描述...

实时位置

正在加载3D地球...

即将过境

高度历史

Altitude vs Time

uPlot chart will show altitude changes over time

两行轨道根数

1 54767U 22175K 25350.18733605 .00002129 00000-0 15178-3 0 9993
2 54767 53.2184 58.9337 0001484 79.1460 280.9699 15.08846298167315
Epoch: Dec 16, 2025 • Age: 23 hours

当前状态

高度 540.6 km
速度 7.59 km/s
星下点 0.78°N, 94.89°E
发射日期 Dec 17, 2022
运行时间 2.9 years
类型 internet

技术详情

分类 Payload
质量 305.00 kg
干质量 290.00 kg
总质量 305.00 kg
长度 0.20 m
直径 2.80 m
跨度 9.00 m
形状 Box + pan
制造商 SPXS
平台类型 Starlink
阶段状态 In Orbit
所有者/国家 SPXS/US

大型星座

Loading constellations...